Location: Unspecified
(35.6961°N, 0.0000°E)
Time: 00:19:18
(UTC+00:00)

Altair - Pass Details

Date: 27 May 2019
Orbit: 1501 x 1683 km, 47.2° (Epoch: 25 June)

Event Time Altitude Azimuth Distance (km) Brightness Sun altitude
Rises 07:50:22 0° 301° (WNW) 4,938 9.7 34.8°
Reaches altitude 10° 07:53:39 10° 305° (NW) 3,944 9.3 35.5°
Maximum altitude 08:03:42 62° 25° (NNE) 1,829 8.7 37.5°
Drops below altitude 10° 08:13:26 10° 105° (ESE) 3,834 10.7 39.5°
Sets 08:16:33 0° 109° (ESE) 4,794 10.9 40.1°
